Tracking 31027 objects as of 19-Jul-2025
HD Live streaming from Space Station
objects crossing your sky now

H-2 R/B(2)

Track H-2 R/B(2) now!
10-day predictions


NORAD ID: 23523
Int'l Code: 1995-011C
Perigee: 262.4 km
Apogee: 24,686.7 km
Inclination: 25.2 °
Period: 429.1 minutes
Semi major axis: 18845 km
RCS: 24.9995 m2 (large)
Launch date: March 18, 1995
Source: Japan (JPN)
Launch site: TANEGASHIMA SPACE CENTER (TNSTA)

Note: This is a ROCKET BODY
Your satellite tracking list
Your tracking list is empty




NASA's NSSDC Master Catalog

Two Line Element Set (TLE):
1 23523U 95011C   25199.81821551  .00010376  00000-0  17275-2 0  9999
2 23523  25.1753 151.2656 6480117 326.5579   5.6469  3.35575456322954
Source of the keplerian elements: AFSPC